TimeEDT,TemperatureF,Dew PointF,Humidity,Sea Level PressureIn,VisibilityMPH,Wind Direction,Wind SpeedMPH,Gust SpeedMPH,PrecipitationIn,Events,Conditions,WindDirDegrees,DateUTC
12:51 AM,66.9,64.9,93,29.72,10.0,SW,10.4,-,N/A,,Partly Cloudy,230,2013-07-20 04:51:00
1:51 AM,66.9,64.9,93,29.71,10.0,SW,9.2,-,N/A,,Mostly Cloudy,230,2013-07-20 05:51:00
2:51 AM,66.9,64.0,90,29.69,10.0,SW,10.4,-,N/A,,Clear,230,2013-07-20 06:51:00
3:51 AM,66.9,64.0,90,29.69,10.0,SW,9.2,18.4,N/A,,Overcast,230,2013-07-20 07:51:00
4:51 AM,66.0,64.0,93,29.68,10.0,SW,9.2,-,N/A,,Partly Cloudy,230,2013-07-20 08:51:00
5:51 AM,66.9,63.0,87,29.71,10.0,SW,10.4,-,0.00,,Overcast,230,2013-07-20 09:51:00
6:48 AM,66.2,64.4,94,29.75,10.0,SW,11.5,-,0.00,,Overcast,230,2013-07-20 10:48:00
6:51 AM,66.0,63.0,90,29.72,10.0,SW,10.4,-,0.00,,Overcast,230,2013-07-20 10:51:00
7:51 AM,68.0,64.0,87,29.72,10.0,WSW,11.5,21.9,0.01,,Mostly Cloudy,240,2013-07-20 11:51:00
8:15 AM,66.2,64.4,94,29.74,5.0,SW,9.2,-,0.00,Rain,Light Rain,230,2013-07-20 12:15:00
8:51 AM,66.9,64.9,93,29.70,10.0,SW,8.1,-,0.00,,Overcast,230,2013-07-20 12:51:00
9:10 AM,68.0,64.4,88,29.72,10.0,SW,10.4,-,N/A,,Overcast,220,2013-07-20 13:10:00
9:51 AM,70.0,64.0,81,29.70,10.0,WSW,15.0,20.7,N/A,,Overcast,240,2013-07-20 13:51:00
10:49 AM,68.0,64.4,88,29.72,3.0,WSW,10.4,-,0.00,Rain,Light Rain,240,2013-07-20 14:49:00
10:51 AM,68.0,64.9,90,29.70,3.0,WSW,9.2,-,0.01,Rain,Light Rain,240,2013-07-20 14:51:00
11:15 AM,69.8,66.2,88,29.71,6.0,SW,8.1,-,0.00,Rain,Light Rain,230,2013-07-20 15:15:00
11:38 AM,69.8,66.2,88,29.71,2.5,SW,12.7,17.3,0.03,Rain,Light Rain,230,2013-07-20 15:38:00
11:44 AM,69.8,66.2,88,29.71,1.8,SW,9.2,17.3,0.03,Rain,Light Rain,230,2013-07-20 15:44:00
11:49 AM,69.8,66.2,88,29.71,3.0,WSW,8.1,-,0.04,Rain,Light Rain,240,2013-07-20 15:49:00
11:51 AM,69.1,66.9,93,29.69,3.0,SW,6.9,-,0.04,Rain,Light Rain,230,2013-07-20 15:51:00
12:00 PM,69.8,66.2,88,29.71,2.5,WSW,8.1,17.3,0.02,Rain,Light Rain,240,2013-07-20 16:00:00
12:02 PM,69.8,66.2,88,29.71,1.8,SW,6.9,17.3,0.03,Rain,Rain,230,2013-07-20 16:02:00
12:17 PM,69.8,66.2,88,29.72,4.0,WSW,10.4,-,0.11,Rain,Light Rain,250,2013-07-20 16:17:00
12:19 PM,69.8,66.2,88,29.72,8.0,WSW,8.1,-,0.11,,Overcast,240,2013-07-20 16:19:00
12:51 PM,71.1,66.0,84,29.70,10.0,West,8.1,18.4,0.11,,Mostly Cloudy,260,2013-07-20 16:51:00
1:51 PM,73.0,62.1,68,29.70,10.0,WSW,10.4,19.6,0.01,,Clear,240,2013-07-20 17:51:00
2:51 PM,75.0,57.9,55,29.71,10.0,Variable,6.9,20.7,N/A,,Clear,0,2013-07-20 18:51:00
3:51 PM,73.9,55.0,52,29.72,10.0,WNW,8.1,-,N/A,,Partly Cloudy,290,2013-07-20 19:51:00
4:51 PM,75.0,54.0,48,29.74,10.0,West,8.1,18.4,N/A,,Scattered Clouds,260,2013-07-20 20:51:00
5:51 PM,73.0,55.0,53,29.74,10.0,Variable,4.6,-,N/A,,Mostly Cloudy,0,2013-07-20 21:51:00
6:51 PM,73.0,57.0,57,29.76,10.0,West,4.6,-,N/A,,Clear,270,2013-07-20 22:51:00
7:51 PM,69.1,60.1,73,29.77,10.0,WSW,4.6,-,N/A,,Overcast,240,2013-07-20 23:51:00
8:51 PM,64.9,59.0,81,29.79,10.0,WSW,5.8,-,N/A,,Partly Cloudy,240,2013-07-21 00:51:00
9:31 PM,64.4,60.8,88,29.86,5.0,Variable,5.8,-,0.01,Rain,Rain,0,2013-07-21 01:31:00
9:51 PM,62.1,60.1,93,29.84,9.0,Calm,Calm,-,0.01,,Overcast,0,2013-07-21 01:51:00
10:51 PM,61.0,59.0,93,29.86,10.0,Calm,Calm,-,0.01,,Overcast,0,2013-07-21 02:51:00
11:51 PM,59.0,59.0,100,29.88,9.0,Calm,Calm,-,N/A,,Overcast,0,2013-07-21 03:51:00